Kosmos-2485

operational
NORAD ID: 39155 Int'l Des: 2013-019 Owner: VVKO/IACG Country: RU Constellation: GLONASS
MEOCIRCULAR

Über Kosmos-2485

Beschreibung wird geladen...

Live-Position

3D-Globus wird geladen...

Nächste Überflüge

Höhenverlauf

Altitude vs Time

uPlot chart will show altitude changes over time

Zweizeiliger Elementsatz

1 39155U 13019A 25298.74989787 .00000026 00000-0 00000+0 0 9999
2 39155 65.2897 81.4803 0023366 226.8037 132.9937 2.13104458 97282
Epoch: 25. Okt. 2025 • Age: 24 hours

Aktueller Status

Höhe 19190.7 km
Geschwindigkeit 3.94 km/s
Subsatellitenpunkt 32.57°N, 158.23°E
Startdatum 26. Apr. 2013
Alter 12.5 years
Typ other

Technische Details

Klassifizierung Payload
Masse 1450.00 kg
Trockenmasse 1200.00 kg
Gesamtmasse 1450.00 kg
Länge 4.00 m
Durchmesser 1.50 m
Spannweite 7.80 m
Form Cyl + Ant + 2 Pan
Hersteller RESH
Bus-Typ Uragan
Phasenstatus In Orbit
Besitzer/Staat VVKO/IACG/RU

Große Konstellationen

Loading constellations...